Location: Zagreb
(45.8000°N, 16.0000°E)
Time: 15:26:30
(UTC+02:00)

Transit 2A - Pass Details

Date: 19 August 2022
Orbit: 601 x 956 km, 66.7° (Epoch: 25 September)

Event Time Altitude Azimuth Distance (km) Brightness Sun altitude
Rises 11:10:43 0° 222° (SW) 3,111 9.2 49.7°
Reaches altitude 10° 11:13:11 10° 227° (SW) 2,141 8.5 50.0°
Maximum altitude 11:17:55 57° 306° (NW) 765 6.4 50.5°
Drops below altitude 10° 11:22:20 10° 26° (NNE) 1,998 8.1 51.0°
Sets 11:24:35 0° 31° (NNE) 2,884 8.9 51.3°
